Regional Weather Roundup
Issued by NWS

Home | Current Version | Previous Version | Text Only | Print | Product List | Glossary On
Versions: 1 2 3 4 5 6 7 8 9 10 11 12 13 14 15 16 17 18 19 20 21 22 23 24 25 26 27 28 29 30 31 32 33 34 35 36 37 38 39 40 41 42 43 44 45 46 47 48 49 50
000
ASUS45 KBOU 141510
RWRCO

WEATHER ROUNDUP FOR COLORADO
NATIONAL WEATHER SERVICE DENVER/BOULDER CO
900 AM MDT MON JUL 14 2014

NOTE: "FAIR" INDICATES FEW OR NO CLOUDS BELOW 12000 FEET WITH NO
SIGNIFICANT WEATHER AND/OR OBSTRUCTIONS TO VISIBILITY.

COZ001>005-013-030-031-141600-
...NORTHWEST COLORADO...

CITY           SKY/WX    TMP DP  RH WIND       PRES   REMARKS
CRAIG          SUNNY     62  53  72 CALM      30.36S
HAYDEN         SUNNY     66  46  48 E12       30.37F
MEEKER         SUNNY     69  46  43 CALM      30.35F
MOUNT WERNER   NOT AVBL
STEAMBOAT SPGS SUNNY     63  50  62 CALM      30.40S
WALDEN         SUNNY     57  45  62 CALM      30.51R
$$

COZ006>008-011-141600-
...WEST CENTRAL VALLEYS...

CITY           SKY/WX    TMP DP  RH WIND       PRES   REMARKS
GRAND JUNCTION PTSUNNY   80  48  32 S8        30.23R
MONTROSE       MOSUNNY   76  51  41 CALM      30.31S
EAGLE          MOSUNNY   64  52  63 CALM      30.41F
RIFLE          SUNNY     73  49  42 VRB3      30.29S
DELTA          MOSUNNY   76  48  36 CALM      30.27S
NUCLA          MOSUNNY   75  46  35 CALM      30.37S
$$

COZ017>023-064>068-141600-
...SOUTHWEST COLORADO...

CITY           SKY/WX    TMP DP  RH WIND       PRES   REMARKS
DURANGO        MOSUNNY   69  54  58 CALM      30.38S
CORTEZ         SUNNY     71  52  50 CALM      30.34S
PAGOSA SPRINGS MOSUNNY   63  52  66 CALM      30.46S
TELLURIDE      PTSUNNY   63  48  59 CALM      30.55F
WOLF CREEK PAS NOT AVBL
$$

COZ009-010-012-014-032>034-037-058>063-141600-
...CENTRAL COLORADO...

CITY           SKY/WX    TMP DP  RH WIND       PRES   REMARKS
ASPEN          MOSUNNY   67  45  45 NE3       30.45F
BUENA VISTA    PTSUNNY   65  51  60 E3        30.49F
COPPER MTN     SUNNY     59  37  44 W10G17    30.77S
BERTHOUD PASS  FAIR      48  34  57 MISG      30.82S
COTTONWOOD PAS PTSUNNY   61  52  72 E3        30.62S
GUNNISON       MOSUNNY   61  46  59 N3        30.51S
KREMMLING      SUNNY     61  45  55 CALM      30.48S
LEADVILLE      MOSUNNY   53  48  83 W3        30.61F
MONARCH PASS   PTSUNNY   48  45  87 SW9       30.87R
SALIDA         PTSUNNY  N/A N/A N/A NE3       30.53S
SUNLIGHT       MOSUNNY   63  41  45 CALM      30.69S
WILKERSON PASS CLOUDY    52  46  82 NE5       30.74S
$$

COZ069>075-141600-
...SAN LUIS VALLEY/SANGRE DE CRISTO MOUNTAINS...

CITY           SKY/WX    TMP DP  RH WIND       PRES   REMARKS
ALAMOSA        PTSUNNY   65  50  58 W5        30.46F
LA VETA PASS   PTSUNNY   52  46  82 SW5       30.63R
SAGUACHE       NOT AVBL
$$

COZ035-036-038>040-141600-
...NORTHERN COLORADO FRONT RANGE...

CITY           SKY/WX    TMP DP  RH WIND       PRES   REMARKS
DENVER INTL AP MOSUNNY   73  53  49 NW10      30.32S
DMNS CITY PARK   N/A     77  51  39 N2        30.33R
AURORA         MOSUNNY   70  55  60 NW8       30.35S
FRONT RANGE AP MOSUNNY   72  59  64 NW6       30.34
ERIE MUNI ARPT SUNNY     73  53  50 CALM      30.31S
BOULDER MUN AP SUNNY     72  59  64 CALM      30.32S
CENTENNIAL     MOSUNNY   70  52  52 NW7       30.36R
BROOMFIELD     MOSUNNY   73  54  49 CALM      30.35R
FORT COLLINS   SUNNY     72  55  56 N5        30.32R
LONGMONT       SUNNY     76  57  52 CALM      30.32S
$$

COZ041-046-047-076>085-087-088-141600-
...PIKES PEAK/PALMER DIVIDE AND SOUTHERN FOOTHILLS...

CITY           SKY/WX    TMP DP  RH WIND       PRES   REMARKS
COLO. SPRINGS  PTSUNNY   75  56  51 N16       30.35R
A. F. ACADEMY  SUNNY     70  57  62 N15       30.38R
ELLICOTT       NOT AVBL
FALCON         MOSUNNY   71  56  58 N16       30.41R
FORT CARSON    MOSUNNY   75  59  58 N12       30.32R
LIMON          SUNNY     73  60  63 N16       30.30R
MONUMENT HILL  SUNNY     64  54  68 NW9       30.42S
TRINIDAD       CLOUDY    69  56  62 NW6       30.32R
$$

COZ042>045-048>051-090-091-141600-
...NORTHEAST COLORADO...

CITY           SKY/WX    TMP DP  RH WIND       PRES   REMARKS
GREELEY ARPT   NOT AVBL
AKRON          SUNNY     70  59  68 N14       30.28R
BURLINGTON     SUNNY     76  63  64 N15       30.22R
WRAY           MOSUNNY   72  60  66 NE7       30.23R
STERLING       SUNNY     70  61  73 NE12      30.26R
HOLYOKE        MOSUNNY   72  61  68 NE8       30.24R
FORT MORGAN    MOSUNNY   73  56  55 NE10      30.29R
$$

COZ086-089-092>099-141600-
...SOUTHEAST COLORADO...

CITY           SKY/WX    TMP DP  RH WIND       PRES   REMARKS
PUEBLO         MOSUNNY   74  61  63 CALM      30.24S
LA JUNTA       SUNNY     75  63  66 CALM      30.22R
LAMAR          SUNNY     75  61  61 NW3       30.17S
SPRINGFIELD      N/A     77  62  59 N3        30.22R
$$


USA.gov is the U.S. government's official web portal to all federal, state and local government web resources and services.